Regional Weather Roundup
Issued by NWS

Home | Current Version | Previous Version | Graphics & Text | Print | Product List | Glossary On
Versions: 1 2 3 4 5 6 7 8 9 10 11 12 13 14 15 16 17 18 19 20 21 22 23 24 25 26 27 28 29 30 31 32 33 34 35 36 37 38 39 40 41 42 43 44 45 46 47 48 49 50
000
ASUS43 KFSD 220002
RWRSD

WEATHER ROUNDUP FOR SOUTH DAKOTA
NATIONAL WEATHER SERVICE SIOUX FALLS SD
700 PM CDT SAT APR 21 2018

NOTE: "FAIR" INDICATES FEW OR NO CLOUDS BELOW 12,000 FEET WITH NO
SIGNIFICANT WEATHER AND/OR OBSTRUCTIONS TO VISIBILITY.


SDZ001>005-009-010-012>017-220100-
NORTHWEST AND NORTH CENTRAL SOUTH DAKOTA

CITY           SKY/WX    TMP DP  RH WIND       PRES   REMARKS
BUFFALO          N/A     58  36  43 SE23G30   30.00S
FAITH            N/A     48  39  71 SE25G33   30.13F
MOBRIDGE       PTSUNNY   53  39  59 S20       30.18F
$$

SDZ012>016-024>037-041>051-057-063-072>074-220100-
SOUTHWEST AND SOUTH CENTRAL SOUTH DAKOTA

CITY           SKY/WX    TMP DP  RH WIND       PRES   REMARKS
RAPID CTY ARPT SUNNY     50  37  61 S22       30.13F
PIERRE         CLOUDY    49  36  61 S13       30.23F
CUSTER         CLOUDY    41  34  76 S8        30.13R
ELLSWORTH AFB  SUNNY    N/A N/A N/A S20G30    30.12F
PHILIP         PTSUNNY   50  39  66 S18       30.20F
PINE RIDGE     MOSUNNY   47  38  71 SE9       30.18F
SPEARFISH      FAIR      59  39  47 E10       30.05S
WINNER         MOCLDY    48  36  63 SE8       30.26R
$$

SDZ004>011-016>023-039-040-220100-
NORTHEAST SOUTH DAKOTA

CITY           SKY/WX    TMP DP  RH WIND       PRES   REMARKS
ABERDEEN       SUNNY     57  33  40 S10       30.25F
WATERTOWN      MOSUNNY   51  35  54 SE12      30.27F
BROOKINGS      CLOUDY    47  34  60 SE9       30.29F
SISSETON         N/A     57  38  48 S10       30.26F
$$

SDZ017-020-022-023-036>040-048>070-220100-
SOUTHEAST SOUTH DAKOTA

CITY           SKY/WX    TMP DP  RH WIND       PRES   REMARKS
SIOUX FALLS    CLOUDY    49  35  58 E12       30.28S
HURON          MOSUNNY   51  34  52 SE9       30.27F
CHAMBERLAIN    CLOUDY    50  40  67 SE7       30.26S
MITCHELL       PTSUNNY   47  39  74 E6        30.28F
YANKTON        CLOUDY    52  34  50 E3        30.27S
$$

ABBREVIATIONS USED IN REMARKS
   TC - TEMPERATURE IN CELSIUS
  WCI - WIND CHILL INDEX
   HX - HEAT INDEX
  VSB - VISIBILITY




USA.gov is the U.S. government's official web portal to all federal, state and local government web resources and services.